Location: Crabtree
(36.2040°N, 82.1040°W)
Time: 14:21:16
(UTC+00:00)

BlueWalker 3 - Pass Details

Date: 29 September 2023
Orbit: 490 x 503 km, 53.2° (Epoch: 06 December)

Event Time Altitude Azimuth Distance (km) Brightness Sun altitude
Exits shadow 08:47:14 - 10° (N) 1,959 5.3 -31.3°
Enters shadow 09:48:57 -67° 278° (W) 12,294 8.9 -19.4°
Maximum altitude 10:27:02 19° 31° (NNE) 1,226 4.4 -11.9°
